Year,Month,Day,Hour,Minute,Value (Times are PST for barometer in hPa)
2019,06,08,00,00,1024.11
2019,06,08,00,01,1024.18
2019,06,08,00,02,1024.18
2019,06,08,00,03,1024.11
2019,06,08,00,04,1024.15
2019,06,08,00,05,1024.15
2019,06,08,00,06,1024.11
2019,06,08,00,07,1024.15
2019,06,08,00,08,1024.18
2019,06,08,00,09,1024.21
2019,06,08,00,10,1024.25
2019,06,08,00,11,1024.25
2019,06,08,00,12,1024.21
2019,06,08,00,13,1024.15
2019,06,08,00,14,1024.21
2019,06,08,00,15,1024.25
2019,06,08,00,16,1024.21
2019,06,08,00,17,1024.21
2019,06,08,00,18,1024.28
2019,06,08,00,19,1024.25
2019,06,08,00,20,1024.28
2019,06,08,00,21,1024.32
2019,06,08,00,22,1024.25
2019,06,08,00,23,1024.25
2019,06,08,00,24,1024.21
2019,06,08,00,25,1024.28
2019,06,08,00,26,1024.32
2019,06,08,00,27,1024.32
2019,06,08,00,28,1024.35
2019,06,08,00,29,1024.28
2019,06,08,00,30,1024.32
2019,06,08,00,31,1024.38
2019,06,08,00,32,1024.32
2019,06,08,00,33,1024.32
2019,06,08,00,34,1024.35
2019,06,08,00,35,1024.35
2019,06,08,00,36,1024.38
2019,06,08,00,37,1024.38
2019,06,08,00,38,1024.35
2019,06,08,00,39,1024.47
2019,06,08,00,40,1024.38
2019,06,08,00,41,1024.42
2019,06,08,00,42,1024.48
2019,06,08,00,43,1024.45
2019,06,08,00,44,1024.48
2019,06,08,00,45,1024.42
2019,06,08,00,46,1024.45
2019,06,08,00,47,1024.45
2019,06,08,00,48,1024.42
2019,06,08,00,49,1024.38
2019,06,08,00,50,1024.38
2019,06,08,00,51,1024.48
2019,06,08,00,52,1024.48
2019,06,08,00,53,1024.42
2019,06,08,00,54,1024.42
2019,06,08,00,55,1024.48
2019,06,08,00,56,1024.52
2019,06,08,00,57,1024.48
2019,06,08,00,58,1024.45
2019,06,08,00,59,1024.45
2019,06,08,01,00,1024.48
2019,06,08,01,01,1024.55
2019,06,08,01,02,1024.62
2019,06,08,01,03,1024.62
2019,06,08,01,04,1024.59
2019,06,08,01,05,1024.69
2019,06,08,01,06,1024.55
2019,06,08,01,07,1024.62
2019,06,08,01,08,1024.55
2019,06,08,01,09,1024.55
2019,06,08,01,10,1024.62
2019,06,08,01,11,1024.52
2019,06,08,01,12,1024.48
2019,06,08,01,13,1024.52
2019,06,08,01,14,1024.59
2019,06,08,01,15,1024.59
2019,06,08,01,16,1024.62
2019,06,08,01,17,1024.65
2019,06,08,01,18,1024.69
2019,06,08,01,19,1024.69
2019,06,08,01,20,1024.65
2019,06,08,01,21,1024.76
2019,06,08,01,22,1024.72
2019,06,08,01,23,1024.72
2019,06,08,01,24,1024.69
2019,06,08,01,25,1024.76
2019,06,08,01,26,1024.79
2019,06,08,01,27,1024.76
2019,06,08,01,28,1024.72
2019,06,08,01,29,1024.79
2019,06,08,01,30,1024.79
2019,06,08,01,31,1024.82
2019,06,08,01,32,1024.76
2019,06,08,01,33,1024.82
2019,06,08,01,34,1024.82
2019,06,08,01,35,1024.86
2019,06,08,01,36,1024.79
2019,06,08,01,37,1024.86
2019,06,08,01,38,1024.89
2019,06,08,01,39,1024.96
2019,06,08,01,40,1024.96
2019,06,08,01,41,1024.99
2019,06,08,01,42,1024.96
2019,06,08,01,43,1024.96
2019,06,08,01,44,1024.96
2019,06,08,01,45,1024.99
2019,06,08,01,46,1024.99
2019,06,08,01,47,1025.06
2019,06,08,01,48,1024.99
2019,06,08,01,49,1024.99
2019,06,08,01,50,1025.09
2019,06,08,01,51,1025.06
2019,06,08,01,52,1024.96
2019,06,08,01,53,1025.03
2019,06,08,01,54,1025.03
2019,06,08,01,55,1025.09
2019,06,08,01,56,1025.06
2019,06,08,01,57,1025.06
2019,06,08,01,58,1025.09
2019,06,08,01,59,1025.09
2019,06,08,02,00,1025.13
2019,06,08,02,01,1025.06
2019,06,08,02,02,1025.13
2019,06,08,02,03,1025.20
2019,06,08,02,04,1025.13
2019,06,08,02,05,1025.16
2019,06,08,02,06,1025.23
2019,06,08,02,07,1025.23
2019,06,08,02,08,1025.20
2019,06,08,02,09,1025.23
2019,06,08,02,10,1025.23
2019,06,08,02,11,1025.16
2019,06,08,02,12,1025.13
2019,06,08,02,13,1025.20
2019,06,08,02,14,1025.14
2019,06,08,02,15,1025.30
2019,06,08,02,16,1025.26
2019,06,08,02,17,1025.23
2019,06,08,02,18,1025.26
2019,06,08,02,19,1025.26
2019,06,08,02,20,1025.20
2019,06,08,02,21,1025.23
2019,06,08,02,22,1025.30
2019,06,08,02,23,1025.33
2019,06,08,02,24,1025.30
2019,06,08,02,25,1025.30
2019,06,08,02,26,1025.33
2019,06,08,02,27,1025.30
2019,06,08,02,28,1025.26
2019,06,08,02,29,1025.26
2019,06,08,02,30,1025.30
2019,06,08,02,31,1025.30
2019,06,08,02,32,1025.30
2019,06,08,02,33,1025.37
2019,06,08,02,34,1025.26
2019,06,08,02,35,1025.30
2019,06,08,02,36,1025.33
2019,06,08,02,37,1025.30
2019,06,08,02,38,1025.33
2019,06,08,02,39,1025.40
2019,06,08,02,40,1025.33
2019,06,08,02,41,1025.47
2019,06,08,02,42,1025.50
2019,06,08,02,43,1025.53
2019,06,08,02,44,1025.53
2019,06,08,02,45,1025.59
2019,06,08,02,46,1025.43
2019,06,08,02,47,1025.53
2019,06,08,02,48,1025.53
2019,06,08,02,49,1025.57
2019,06,08,02,50,1025.64
2019,06,08,02,51,1025.60
2019,06,08,02,52,1025.64
2019,06,08,02,53,1025.53
2019,06,08,02,54,1025.57
2019,06,08,02,55,1025.70
2019,06,08,02,56,1025.60
2019,06,08,02,57,1025.53
2019,06,08,02,58,1025.57
2019,06,08,02,59,1025.60
2019,06,08,03,00,1025.67
2019,06,08,03,01,1025.60
2019,06,08,03,02,1025.64
2019,06,08,03,03,1025.70
2019,06,08,03,04,1025.74
2019,06,08,03,05,1025.64
2019,06,08,03,06,1025.70
2019,06,08,03,07,1025.64
2019,06,08,03,08,1025.77
2019,06,08,03,09,1025.67
2019,06,08,03,10,1025.70
2019,06,08,03,11,1025.77
2019,06,08,03,12,1025.81
2019,06,08,03,13,1025.74
2019,06,08,03,14,1025.70
2019,06,08,03,15,1025.64
2019,06,08,03,16,1025.77
2019,06,08,03,17,1025.81
2019,06,08,03,18,1025.74
2019,06,08,03,19,1025.84
2019,06,08,03,20,1025.81
2019,06,08,03,21,1025.84
2019,06,08,03,22,1025.77
2019,06,08,03,23,1025.74
2019,06,08,03,24,1025.77
2019,06,08,03,25,1025.81
2019,06,08,03,26,1025.74
2019,06,08,03,27,1025.77
2019,06,08,03,28,1025.74
2019,06,08,03,29,1025.84
2019,06,08,03,30,1025.81
2019,06,08,03,31,1025.81
2019,06,08,03,32,1025.84
2019,06,08,03,33,1025.81
2019,06,08,03,34,1025.84
2019,06,08,03,35,1025.77
2019,06,08,03,36,1025.84
2019,06,08,03,37,1025.91
2019,06,08,03,38,1025.87
2019,06,08,03,39,1025.87
2019,06,08,03,40,1025.94
2019,06,08,03,41,1025.91
2019,06,08,03,42,1025.94
2019,06,08,03,43,1026.04
2019,06,08,03,44,1025.97
2019,06,08,03,45,1026.04
2019,06,08,03,46,1025.94
2019,06,08,03,47,1026.04
2019,06,08,03,48,1025.97
2019,06,08,03,49,1026.04
2019,06,08,03,50,1025.94
2019,06,08,03,51,1025.97
2019,06,08,03,52,1025.94
2019,06,08,03,53,1025.97
2019,06,08,03,54,1025.94
2019,06,08,03,55,1026.01
2019,06,08,03,56,1026.01
2019,06,08,03,57,1026.08
2019,06,08,03,58,1026.01
2019,06,08,03,59,1026.01
2019,06,08,04,00,1026.04
2019,06,08,04,01,1026.04
2019,06,08,04,02,1026.08
2019,06,08,04,03,1026.01
2019,06,08,04,04,1026.04
2019,06,08,04,05,1026.11
2019,06,08,04,06,1026.04
2019,06,08,04,07,1026.11
2019,06,08,04,08,1026.04
2019,06,08,04,09,1026.11
2019,06,08,04,10,1026.08
2019,06,08,04,11,1026.08
2019,06,08,04,12,1026.18
2019,06,08,04,13,1026.25
2019,06,08,04,14,1026.21
2019,06,08,04,15,1026.18
2019,06,08,04,16,1026.25
2019,06,08,04,17,1026.21
2019,06,08,04,18,1026.18
2019,06,08,04,19,1026.21
2019,06,08,04,20,1026.25
2019,06,08,04,21,1026.21
2019,06,08,04,22,1026.25
2019,06,08,04,23,1026.18
2019,06,08,04,24,1026.18
2019,06,08,04,25,1026.18
2019,06,08,04,26,1026.21
2019,06,08,04,27,1026.28
2019,06,08,04,28,1026.31
2019,06,08,04,29,1026.31
2019,06,08,04,30,1026.25
2019,06,08,04,31,1026.28
2019,06,08,04,32,1026.31
2019,06,08,04,33,1026.25
2019,06,08,04,34,1026.38
2019,06,08,04,35,1026.25
2019,06,08,04,36,1026.28
2019,06,08,04,37,1026.28
2019,06,08,04,38,1026.38
2019,06,08,04,39,1026.35
2019,06,08,04,40,1026.35
2019,06,08,04,41,1026.35
2019,06,08,04,42,1026.28
2019,06,08,04,43,1026.38
2019,06,08,04,44,1026.31
2019,06,08,04,45,1026.31
2019,06,08,04,46,1026.41
2019,06,08,04,47,1026.41
2019,06,08,04,48,1026.35
2019,06,08,04,49,1026.35
2019,06,08,04,50,1026.38
2019,06,08,04,51,1026.41
2019,06,08,04,52,1026.38
2019,06,08,04,53,1026.35
2019,06,08,04,54,1026.35
2019,06,08,04,55,1026.35
2019,06,08,04,56,1026.41
2019,06,08,04,57,1026.45
2019,06,08,04,58,1026.31
2019,06,08,04,59,1026.38
2019,06,08,05,00,1026.45
2019,06,08,05,01,1026.38
2019,06,08,05,02,1026.45
2019,06,08,05,03,1026.48
2019,06,08,05,04,1026.52
2019,06,08,05,05,1026.58
2019,06,08,05,06,1026.58
2019,06,08,05,07,1026.55
2019,06,08,05,08,1026.58
2019,06,08,05,09,1026.58
2019,06,08,05,10,1026.58
2019,06,08,05,11,1026.55
2019,06,08,05,12,1026.69
2019,06,08,05,13,1026.58
2019,06,08,05,14,1026.62
2019,06,08,05,15,1026.69
2019,06,08,05,16,1026.72
2019,06,08,05,17,1026.79
2019,06,08,05,18,1026.72
2019,06,08,05,19,1026.69
2019,06,08,05,20,1026.86
2019,06,08,05,21,1026.79
2019,06,08,05,22,1026.79
2019,06,08,05,23,1026.86
2019,06,08,05,24,1026.79
2019,06,08,05,25,1026.86
2019,06,08,05,26,1026.82
2019,06,08,05,27,1026.86
2019,06,08,05,28,1026.89
2019,06,08,05,29,1026.89
2019,06,08,05,30,1026.82
2019,06,08,05,31,1026.92
2019,06,08,05,32,1026.96
2019,06,08,05,33,1026.96
2019,06,08,05,34,1026.99
2019,06,08,05,35,1026.96
2019,06,08,05,36,1027.02
2019,06,08,05,37,1026.96
2019,06,08,05,38,1027.06
2019,06,08,05,39,1026.96
2019,06,08,05,40,1026.99
2019,06,08,05,41,1027.09
2019,06,08,05,42,1027.06
2019,06,08,05,43,1027.09
2019,06,08,05,44,1027.09
2019,06,08,05,45,1027.13
2019,06,08,05,46,1027.13
2019,06,08,05,47,1027.16
2019,06,08,05,48,1027.02
2019,06,08,05,49,1027.16
2019,06,08,05,50,1027.19
2019,06,08,05,51,1027.13
2019,06,08,05,52,1027.09
2019,06,08,05,53,1027.13
2019,06,08,05,54,1027.13
2019,06,08,05,55,1027.13
2019,06,08,05,56,1027.13
2019,06,08,05,57,1027.19
2019,06,08,05,58,1027.19
2019,06,08,05,59,1027.13
2019,06,08,06,00,1027.16
2019,06,08,06,01,1027.19
2019,06,08,06,02,1027.23
2019,06,08,06,03,1027.19
2019,06,08,06,04,1027.19
2019,06,08,06,05,1027.26
2019,06,08,06,06,1027.23
2019,06,08,06,07,1027.26
2019,06,08,06,08,1027.23
2019,06,08,06,09,1027.19
2019,06,08,06,10,1027.23
2019,06,08,06,11,1027.23
2019,06,08,06,12,1027.23
2019,06,08,06,13,1027.23
2019,06,08,06,14,1027.30
2019,06,08,06,15,1027.23
2019,06,08,06,16,1027.30
2019,06,08,06,17,1027.40
2019,06,08,06,18,1027.36
2019,06,08,06,19,1027.40
2019,06,08,06,20,1027.40
2019,06,08,06,21,1027.40
2019,06,08,06,22,1027.30
2019,06,08,06,23,1027.43
2019,06,08,06,24,1027.40
2019,06,08,06,25,1027.40
2019,06,08,06,26,1027.36
2019,06,08,06,27,1027.50
2019,06,08,06,28,1027.50
2019,06,08,06,29,1027.50
2019,06,08,06,30,1027.50
2019,06,08,06,31,1027.57
2019,06,08,06,32,1027.57
2019,06,08,06,33,1027.53
2019,06,08,06,34,1027.60
2019,06,08,06,35,1027.60
2019,06,08,06,36,1027.60
2019,06,08,06,37,1027.63
2019,06,08,06,38,1027.60
2019,06,08,06,39,1027.57
2019,06,08,06,40,1027.63
2019,06,08,06,41,1027.67
2019,06,08,06,42,1027.77
2019,06,08,06,43,1027.74
2019,06,08,06,44,1027.70
2019,06,08,06,45,1027.70
2019,06,08,06,46,1027.74
2019,06,08,06,47,1027.77
2019,06,08,06,48,1027.80
2019,06,08,06,49,1027.74
2019,06,08,06,50,1027.77
2019,06,08,06,51,1027.77
2019,06,08,06,52,1027.77
2019,06,08,06,53,1027.80
2019,06,08,06,54,1027.84
2019,06,08,06,55,1027.84
2019,06,08,06,56,1027.87
2019,06,08,06,57,1027.80
2019,06,08,06,58,1027.84
2019,06,08,06,59,1027.90
2019,06,08,07,00,1027.90
2019,06,08,07,01,1027.87
2019,06,08,07,02,1027.90
2019,06,08,07,03,1027.90
2019,06,08,07,04,1027.90
2019,06,08,07,05,1027.87
2019,06,08,07,06,1027.87
2019,06,08,07,07,1027.87
2019,06,08,07,08,1027.90
2019,06,08,07,09,1027.87
2019,06,08,07,10,1027.90
2019,06,08,07,11,1027.87
2019,06,08,07,12,1027.84
2019,06,08,07,13,1027.90
2019,06,08,07,14,1027.84
2019,06,08,07,15,1027.90
2019,06,08,07,16,1027.84
2019,06,08,07,17,1027.90
2019,06,08,07,18,1027.87
2019,06,08,07,19,1027.84
2019,06,08,07,20,1027.80
2019,06,08,07,21,1027.80
2019,06,08,07,22,1027.84
2019,06,08,07,23,1027.84
2019,06,08,07,24,1027.90
2019,06,08,07,25,1027.84
2019,06,08,07,26,1027.80
2019,06,08,07,27,1027.84
2019,06,08,07,28,1027.87
2019,06,08,07,29,1027.90
2019,06,08,07,30,1027.87
2019,06,08,07,31,1027.90
2019,06,08,07,32,1027.80
2019,06,08,07,33,1027.90
2019,06,08,07,34,1027.87
2019,06,08,07,35,1027.87
2019,06,08,07,36,1027.94
2019,06,08,07,37,1027.94
2019,06,08,07,38,1027.87
2019,06,08,07,39,1027.94
2019,06,08,07,40,1028.07
2019,06,08,07,41,1028.07
2019,06,08,07,42,1028.04
2019,06,08,07,43,1028.14
2019,06,08,07,44,1028.18
2019,06,08,07,45,1028.14
2019,06,08,07,46,1028.14
2019,06,08,07,47,1028.18
2019,06,08,07,48,1028.14
2019,06,08,07,49,1028.18
2019,06,08,07,50,1028.21
2019,06,08,07,51,1028.18
2019,06,08,07,52,1028.18
2019,06,08,07,53,1028.18
2019,06,08,07,54,1028.07
2019,06,08,07,55,1028.18
2019,06,08,07,56,1028.14
2019,06,08,07,57,1028.14
2019,06,08,07,58,1028.07
2019,06,08,07,59,1028.11
2019,06,08,08,00,1028.07
2019,06,08,08,01,1028.11
2019,06,08,08,02,1028.24
2019,06,08,08,03,1028.14
2019,06,08,08,04,1028.18
2019,06,08,08,05,1028.11
2019,06,08,08,06,1028.07
2019,06,08,08,07,1028.14
2019,06,08,08,08,1028.18
2019,06,08,08,09,1028.18
2019,06,08,08,10,1028.14
2019,06,08,08,11,1028.11
2019,06,08,08,12,1028.04
2019,06,08,08,13,1028.07
2019,06,08,08,14,1028.14
2019,06,08,08,15,1028.07
2019,06,08,08,16,1028.11
2019,06,08,08,17,1028.18
2019,06,08,08,18,1028.07
2019,06,08,08,19,1028.07
2019,06,08,08,20,1028.14
2019,06,08,08,21,1028.18
2019,06,08,08,22,1028.18
2019,06,08,08,23,1028.07
2019,06,08,08,24,1028.11
2019,06,08,08,25,1028.18
2019,06,08,08,26,1028.18
2019,06,08,08,27,1028.18
2019,06,08,08,28,1028.24
2019,06,08,08,29,1028.21
2019,06,08,08,30,1028.28
2019,06,08,08,31,1028.24
2019,06,08,08,32,1028.28
2019,06,08,08,33,1028.31
2019,06,08,08,34,1028.21
2019,06,08,08,35,1028.28
2019,06,08,08,36,1028.28
2019,06,08,08,37,1028.28
2019,06,08,08,38,1028.28
2019,06,08,08,39,1028.35
2019,06,08,08,40,1028.31
2019,06,08,08,41,1028.35
2019,06,08,08,42,1028.35
2019,06,08,08,43,1028.38
2019,06,08,08,44,1028.28
2019,06,08,08,45,1028.28
2019,06,08,08,46,1028.28
2019,06,08,08,47,1028.31
2019,06,08,08,48,1028.28
2019,06,08,08,49,1028.35
2019,06,08,08,50,1028.35
2019,06,08,08,51,1028.31
2019,06,08,08,52,1028.35
2019,06,08,08,53,1028.31
2019,06,08,08,54,1028.35
2019,06,08,08,55,1028.41
2019,06,08,08,56,1028.28
2019,06,08,08,57,1028.35
2019,06,08,08,58,1028.31
2019,06,08,08,59,1028.28
2019,06,08,09,00,1028.41
2019,06,08,09,01,1028.45
2019,06,08,09,02,1028.45
2019,06,08,09,03,1028.38
2019,06,08,09,04,1028.31
2019,06,08,09,05,1028.41
2019,06,08,09,06,1028.48
2019,06,08,09,07,1028.45
2019,06,08,09,08,1028.45
2019,06,08,09,09,1028.38
2019,06,08,09,10,1028.35
2019,06,08,09,11,1028.45
2019,06,08,09,12,1028.41
2019,06,08,09,13,1028.38
2019,06,08,09,14,1028.41
2019,06,08,09,15,1028.35
2019,06,08,09,16,1028.38
2019,06,08,09,17,1028.41
2019,06,08,09,18,1028.35
2019,06,08,09,19,1028.35
2019,06,08,09,20,1028.45
2019,06,08,09,21,1028.38
2019,06,08,09,22,1028.38
2019,06,08,09,23,1028.45
2019,06,08,09,24,1028.48
2019,06,08,09,25,1028.45
2019,06,08,09,26,1028.48
2019,06,08,09,27,1028.48
2019,06,08,09,28,1028.45
2019,06,08,09,29,1028.48
2019,06,08,09,30,1028.55
2019,06,08,09,31,1028.45
2019,06,08,09,32,1028.51
2019,06,08,09,33,1028.51
2019,06,08,09,34,1028.45
2019,06,08,09,35,1028.45
2019,06,08,09,36,1028.48
2019,06,08,09,37,1028.45
2019,06,08,09,38,1028.48
2019,06,08,09,39,1028.45
2019,06,08,09,40,1028.48
2019,06,08,09,41,1028.48
2019,06,08,09,42,1028.45
2019,06,08,09,43,1028.51
2019,06,08,09,44,1028.51
2019,06,08,09,45,1028.51
2019,06,08,09,46,1028.48
2019,06,08,09,47,1028.48
2019,06,08,09,48,1028.51
2019,06,08,09,49,1028.55
2019,06,08,09,50,1028.58
2019,06,08,09,51,1028.55
2019,06,08,09,52,1028.55
2019,06,08,09,53,1028.55
2019,06,08,09,54,1028.58
2019,06,08,09,55,1028.62
2019,06,08,09,56,1028.62
2019,06,08,09,57,1028.62
2019,06,08,09,58,1028.58
2019,06,08,09,59,1028.58
2019,06,08,10,00,1028.65
2019,06,08,10,01,1028.62
2019,06,08,10,02,1028.58
2019,06,08,10,03,1028.62
2019,06,08,10,04,1028.65
2019,06,08,10,05,1028.68
2019,06,08,10,06,1028.62
2019,06,08,10,07,1028.72
2019,06,08,10,08,1028.65
2019,06,08,10,09,1028.68
2019,06,08,10,10,1028.68
2019,06,08,10,11,1028.68
2019,06,08,10,12,1028.65
2019,06,08,10,13,1028.75
2019,06,08,10,14,1028.72
2019,06,08,10,15,1028.68
